Theta_e
352 350 348 348 350 350 348 347 346 346 347 352 355 358 358 356 351 350 348 344 338 328 327 328 325 324 323 326 324 323 320 318 316 315 312 312 315 315 313 313 314 311 308
350 350 350 347 346 344 344 343 342 341 345 354 357 357 357 355 351 349 349 344 336 330 329 328 326 324 323 324 322 319 318 313 310 311 311 311 313 312 306 310 307 310 312
351 350 349 349 349 346 343 341 341 343 349 357 355 354 356 357 352 350 349 345 337 331 330 328 326 323 321 320 316 314 311 306 309 311 311 312 311 308 306 308 310 310 313
352 351 351 350 349 348 344 342 345 346 345 350 356 353 355 357 353 351 349 346 333 329 328 327 324 321 316 313 313 310 307 310 311 311 312 312 311 309 308 310 311 311 312
352 351 351 351 351 352 350 349 350 350 349 347 347 351 357 358 354 351 349 346 338 329 328 327 323 320 318 316 316 308 306 311 312 312 312 312 312 310 309 309 310 312 311
352 353 353 353 354 355 355 355 354 352 351 352 353 356 357 359 355 352 350 347 339 329 328 326 323 321 320 318 317 312 304 311 314 315 313 312 311 310 309 308 310 312 310
353 354 354 355 355 356 356 355 354 353 353 355 354 357 357 358 357 352 351 347 340 331 328 326 324 322 321 319 318 314 305 314 315 313 313 310 309 309 309 310 311 312 312
354 355 355 356 356 356 356 355 355 354 355 356 357 357 358 358 357 353 350 345 339 332 329 326 326 323 320 320 317 307 305 311 313 310 308 307 309 311 312 314 314 311 310
354 355 356 356 356 356 356 356 356 356 356 357 358 358 358 359 357 352 349 342 338 331 328 326 326 324 321 319 315 303 304 307 305 306 309 311 312 311 310 309 309 310 310
354 355 355 356 356 356 356 357 356 356 356 357 358 359 358 358 357 353 348 340 334 330 327 326 325 324 321 318 305 303 304 305 309 310 311 311 310 309 310 310 311 311 310
353 355 355 356 356 356 356 356 357 357 357 358 359 359 359 359 358 353 344 336 332 328 326 325 324 322 320 315 306 304 306 307 309 310 310 310 309 310 309 309 309 309 309
352 353 354 355 356 356 357 357 357 358 358 359 358 355 357 356 356 353 344 335 332 327 325 322 323 322 319 311 307 307 308 308 310 310 310 310 310 309 309 309 309 309 308
353 352 353 355 355 356 357 358 358 358 358 360 356 354 348 354 352 350 344 339 332 324 322 324 324 323 320 313 305 309 309 309 309 309 310 309 310 309 308 308 308 308 306
351 353 353 353 356 357 357 358 359 359 359 360 356 353 347 346 347 346 341 334 322 325 326 326 325 324 321 313 304 311 311 310 310 310 310 309 309 309 308 308 308 308 306
352 352 352 353 355 357 358 359 360 360 360 360 358 352 344 340 345 349 344 334 319 320 322 319 320 319 312 307 306 312 312 311 312 311 309 309 309 308 307 307 307 307 304
352 354 354 355 355 357 358 360 361 361 361 361 359 353 348 350 346 347 347 342 331 312 319 315 314 312 310 307 307 311 312 313 312 309 309 309 309 307 307 307 306 304 302
356 355 356 358 358 359 360 361 361 356 362 362 361 355 352 353 348 349 344 340 336 312 315 313 313 311 310 308 312 314 313 311 310 309 308 309 308 307 306 306 306 303 302
358 359 360 358 360 362 362 362 363 358 352 353 356 352 349 353 347 345 337 329 315 312 314 314 313 313 309 313 314 314 310 310 310 308 308 308 307 307 305 305 305 303 302
365 364 364 365 364 363 364 364 363 358 353 345 345 344 345 343 342 338 334 321 313 312 313 313 314 311 311 314 316 311 310 310 310 308 308 307 307 307 304 303 305 303 302
366 367 367 366 366 365 365 363 360 352 348 338 339 338 335 334 329 325 320 316 313 311 311 311 311 310 312 314 312 311 310 310 309 307 308 306 307 304 303 304 304 302 302
367 368 369 369 366 365 362 360 353 349 345 340 341 340 338 334 326 318 314 313 317 312 311 311 308 310 311 315 311 311 310 309 308 308 306 307 305 304 303 304 303 302 301
358 364 366 366 364 361 359 357 347 346 345 337 336 335 334 330 323 318 316 320 318 314 315 312 310 310 311 313 312 311 309 308 307 306 306 304 304 303 303 303 302 302 301
354 356 357 357 359 360 357 353 346 345 339 334 332 330 326 322 317 317 317 320 318 314 313 311 311 309 312 313 312 310 308 307 307 306 306 303 303 303 303 303 302 302 301
344 348 352 354 353 356 354 348 346 343 335 329 329 327 321 318 317 320 319 320 316 317 314 309 308 308 311 312 310 308 307 307 306 306 305 303 302 303 303 303 303 302 301
337 340 345 350 352 353 352 347 344 339 333 330 326 326 321 318 316 316 317 316 316 317 310 311 315 316 313 311 309 307 306 306 306 305 305 303 302 303 303 303 303 301 301
330 335 336 341 347 350 348 345 342 340 332 328 327 328 324 318 316 317 317 317 318 316 312 312 315 315 312 311 308 306 305 305 305 305 303 302 302 302 302 302 302 301 300
Wind_Speed
41 41 39 40 37 33 31 29 27 24 19 16 16 16 14 11 11 8 8 7 6 4 5 3 3 3 3 3 3 3 4 2 2 5 11 11 8 10 12 12 15 16 14
41 40 42 40 38 37 37 37 34 31 24 20 15 17 15 13 13 10 10 10 9 7 7 5 2 1 1 1 2 2 3 5 5 4 8 10 7 12 15 14 16 15 15
39 40 39 40 41 40 39 38 37 33 29 24 24 21 19 17 17 13 12 12 12 11 10 8 5 3 1 1 2 2 4 5 4 5 6 8 10 13 16 13 16 19 12
38 38 38 40 41 41 42 41 40 37 36 32 26 25 23 21 21 17 15 15 14 12 11 9 7 5 2 2 1 1 3 3 5 7 7 8 9 13 11 13 20 23 18
37 36 38 40 38 36 40 41 39 38 37 35 33 30 27 26 25 22 19 18 17 15 13 10 8 6 2 3 2 3 5 5 8 9 9 10 12 13 12 12 14 18 19
36 36 36 35 36 38 41 40 39 38 36 33 31 31 30 30 29 26 21 21 20 19 16 13 10 9 7 6 4 5 7 8 10 10 12 11 13 13 13 15 14 14 6
36 35 35 37 37 39 42 40 40 40 36 32 34 34 34 33 31 28 24 22 21 20 18 15 13 11 10 8 7 7 6 5 8 9 12 12 15 16 17 20 20 16 13
34 34 36 36 36 37 38 40 38 39 36 34 35 36 36 36 33 29 24 23 22 20 18 16 15 13 11 9 7 7 6 7 7 8 13 16 17 17 16 14 14 14 15
34 34 35 38 36 36 37 39 37 36 33 34 35 37 38 37 34 30 28 27 26 24 21 20 18 14 11 9 8 6 5 5 6 7 9 11 5 6 7 8 11 11 14
35 38 40 41 40 38 41 37 35 34 31 32 34 37 38 38 37 35 30 31 29 28 24 22 19 16 12 10 9 6 4 3 3 4 5 5 6 7 8 10 11 12 15
38 39 39 41 43 44 37 32 31 32 28 31 33 36 38 39 37 36 32 32 32 31 26 21 19 17 14 12 9 6 4 3 4 8 7 6 7 8 8 10 13 13 11
36 38 42 44 42 35 34 33 34 33 32 31 29 30 37 36 36 37 34 35 34 33 30 26 22 20 16 14 10 7 4 4 5 8 7 9 10 9 10 11 12 12 10
37 39 41 39 38 35 35 35 31 31 30 28 28 27 29 34 34 35 34 33 35 32 28 26 20 22 18 16 12 10 8 6 7 9 9 9 9 9 12 12 11 10 11
37 36 34 35 35 35 33 33 32 32 32 30 28 28 23 31 34 35 34 35 32 27 24 26 22 24 22 17 13 12 10 10 11 10 9 8 7 8 12 13 13 12 10
33 31 31 31 33 31 35 34 37 39 39 34 33 30 27 29 40 41 40 38 40 37 23 18 20 24 25 19 17 14 13 13 12 11 9 7 7 9 11 13 13 6 8
28 28 30 30 28 30 30 32 40 41 37 41 38 37 33 35 34 36 41 40 42 42 32 29 28 29 25 21 20 17 14 14 12 10 8 5 5 9 11 13 8 6 9
31 29 28 30 28 27 29 29 26 28 38 33 40 34 36 37 35 32 34 38 40 40 28 31 32 29 26 22 19 17 16 14 12 10 7 4 5 8 11 11 2 4 9
31 31 27 26 29 27 27 28 26 22 21 24 32 33 35 34 28 28 31 35 36 39 31 33 30 27 26 23 18 19 17 16 13 8 5 3 5 9 11 7 3 5 8
31 27 31 26 27 26 24 24 23 19 19 20 28 30 32 29 24 26 29 35 31 32 30 32 35 31 27 23 21 22 19 16 12 7 5 4 5 7 6 8 4 4 7
24 28 26 27 24 24 25 23 19 19 19 23 26 27 30 29 31 33 35 22 23 28 33 32 32 28 23 23 25 22 18 13 12 9 7 5 4 3 2 6 5 3 7
17 20 21 22 23 24 25 25 20 22 21 26 24 29 37 38 34 33 35 32 38 34 35 32 32 31 23 26 26 22 17 14 13 11 9 4 2 3 4 4 6 4 9
10 11 17 19 19 21 21 22 24 25 23 23 27 28 31 34 32 34 35 37 36 33 31 30 33 30 25 30 28 23 19 17 13 14 7 6 6 7 5 4 6 4 10
13 8 8 13 18 23 23 22 23 23 26 28 29 27 30 28 25 27 33 37 36 30 26 28 32 30 26 29 24 21 20 17 18 15 12 10 7 7 5 5 9 5 9
16 12 11 16 15 23 23 24 24 25 26 26 30 29 29 27 29 34 36 39 35 29 27 25 29 29 28 28 21 20 17 19 18 16 12 11 8 8 7 6 7 6 9
24 21 16 11 19 24 24 23 23 24 24 28 29 29 28 27 27 31 35 36 34 29 29 28 25 29 31 29 25 23 20 22 17 16 13 11 10 9 8 9 8 10 8
27 25 24 18 2 11 16 19 22 24 26 28 30 31 31 30 31 31 33 33 32 34 31 30 24 30 34 30 27 23 22 19 16 15 17 12 10 9 11 12 12 9 9
Wind_Direction
204 210 213 216 220 225 232 236 238 243 245 254 224 213 208 213 198 215 211 207 214 183 179 167 103 83 54 88 66 42 48 24 270 309 335 356 355 355 347 338 338 336 331
204 206 213 219 222 226 232 238 242 245 242 236 221 220 226 220 207 227 216 218 215 210 195 196 181 146 115 310 325 4 5 349 326 308 327 339 335 344 347 346 354 357 351
201 205 211 216 222 225 231 237 241 241 237 236 236 238 236 227 214 229 228 226 220 224 216 208 231 222 200 306 320 334 336 333 339 330 327 329 335 351 355 2 9 11 29
198 202 207 214 221 224 232 237 240 241 240 237 238 243 243 232 219 227 226 223 219 215 206 224 246 234 225 221 302 316 325 326 337 338 329 326 332 345 352 359 359 4 3
195 199 207 215 219 222 231 235 239 242 243 242 241 243 239 233 221 221 225 223 225 215 211 230 233 222 233 207 275 321 313 306 321 321 315 307 319 332 345 337 338 346 350
195 201 206 211 214 220 230 235 238 242 244 240 236 236 234 230 224 225 227 220 223 221 215 219 219 216 228 234 265 296 297 291 305 302 302 296 301 307 321 329 326 327 321
196 201 204 210 212 218 227 231 236 240 242 237 236 235 234 232 227 223 222 223 222 220 221 219 214 217 229 232 243 283 290 274 293 295 292 294 299 315 315 312 310 314 298
198 201 204 207 212 217 222 228 233 238 237 235 234 235 234 231 228 223 221 222 220 223 224 225 225 225 217 232 260 289 285 270 272 287 298 307 306 312 308 309 311 309 317
199 202 205 207 210 214 220 225 228 232 233 235 231 234 233 232 223 222 217 215 217 218 217 219 220 225 222 235 264 276 286 281 275 285 303 318 341 5 350 334 332 321 318
199 203 208 211 212 214 222 223 227 230 231 234 233 236 236 234 223 222 220 211 211 213 213 211 220 227 218 229 252 261 278 292 309 297 349 17 350 346 334 331 331 318 317
201 205 208 212 216 222 222 221 223 227 227 232 232 235 235 232 226 222 214 210 214 211 209 208 218 222 221 220 235 244 254 251 318 330 332 328 331 343 350 347 346 337 333
202 204 210 215 217 219 218 219 221 223 221 223 219 220 230 230 226 222 214 218 221 219 213 217 221 217 217 215 224 212 217 240 290 317 315 322 333 341 345 342 346 0 16
203 207 211 214 217 216 214 216 215 216 218 219 218 218 209 225 224 222 218 222 223 217 222 223 219 216 221 217 220 205 218 245 265 287 301 307 322 333 337 340 357 350 4
206 210 212 213 214 215 216 216 215 216 218 220 215 214 203 206 220 217 216 220 214 211 216 218 226 228 214 220 221 211 225 248 259 270 280 301 322 331 333 345 347 342 9
211 215 214 217 217 217 217 217 219 225 219 216 217 211 194 199 217 220 217 213 213 208 199 203 202 200 203 210 219 216 225 242 254 252 262 292 311 322 331 343 350 26 53
210 213 216 216 218 218 221 224 227 230 230 227 223 211 210 229 229 226 226 222 219 207 199 186 189 200 212 215 217 220 227 239 232 221 241 277 297 317 328 337 12 84 47
212 218 217 216 218 217 218 222 229 234 231 228 223 218 222 232 228 227 222 227 222 204 193 189 198 207 218 216 213 223 213 211 203 215 245 265 301 317 329 348 53 63 30
221 223 215 216 217 218 217 222 225 216 202 205 213 212 213 231 232 233 220 209 195 197 197 191 205 214 220 212 218 208 199 191 195 219 223 251 297 314 332 352 160 63 24
222 222 224 222 221 219 216 217 214 202 195 182 189 199 212 221 220 213 214 200 186 193 205 199 205 209 216 228 212 200 195 195 200 202 212 254 289 316 338 11 162 56 20
240 238 236 232 227 220 214 200 188 180 177 177 190 195 202 196 188 196 193 198 204 202 202 207 207 205 210 218 199 193 193 201 199 204 212 239 304 318 15 25 140 83 26
258 249 240 238 232 219 199 189 182 180 178 190 198 203 206 194 190 186 186 191 204 207 207 210 212 199 207 206 197 195 198 197 202 203 205 209 171 116 47 60 139 79 28
333 259 245 239 239 213 197 188 177 181 186 178 194 203 209 196 191 187 188 200 212 213 202 203 214 206 207 199 199 202 197 195 196 181 174 145 118 130 72 70 154 75 22
317 306 287 280 248 217 191 183 179 179 183 188 195 197 198 196 191 188 191 201 208 208 208 201 210 212 206 202 211 206 197 193 181 181 166 157 122 132 79 76 173 82 21
338 320 296 276 251 200 190 183 185 183 182 182 190 200 197 192 192 195 200 200 207 200 201 204 210 208 205 198 198 194 190 181 178 181 172 159 148 137 107 68 131 81 41
0 351 335 289 214 195 190 184 182 176 173 185 186 199 196 191 189 196 200 200 198 200 199 199 216 222 206 194 190 188 181 175 178 178 168 155 148 138 105 81 134 68 49
5 5 2 1 294 212 191 177 177 172 176 185 188 199 199 191 197 201 199 197 195 201 201 212 219 212 193 195 194 183 175 179 179 173 157 146 148 129 105 98 116 79 65